EHI
2 7 14 18 18 15 14 14 14 14 14 14 14 13 12 8 4 2 1 2 2 3 3 2 1 1 0 0 0 0 0 0 0 0 0 0 0 0 0 0 0 0 0
2 7 13 18 18 15 14 13 13 14 14 15 15 13 11 9 6 3 2 1 2 3 3 2 1 0 0 0 0 0 0 0 0 0 0 0 0 0 0 0 0 0 0
2 6 13 17 19 18 16 13 13 14 14 16 16 14 11 9 8 5 3 2 2 3 3 2 1 0 0 0 0 0 0 0 0 0 0 0 0 0 0 0 0 0 0
3 6 12 17 20 20 18 15 14 14 15 16 16 15 12 10 9 7 5 3 3 4 4 3 1 0 0 0 0 0 0 0 0 0 0 0 0 0 0 0 0 0 0
3 7 12 17 19 19 18 16 14 15 16 16 16 15 12 10 9 8 6 5 4 5 5 3 1 0 0 1 1 1 0 0 0 0 0 0 0 0 0 0 0 0 0
3 6 11 15 16 16 16 16 14 15 17 17 16 14 12 10 9 8 7 6 6 6 5 2 1 1 1 1 1 1 0 0 0 0 0 0 0 0 0 0 0 0 0
2 4 8 12 13 14 15 16 16 16 17 18 16 14 12 10 9 8 7 6 6 5 4 2 1 1 2 2 1 0 0 0 0 0 0 0 0 0 0 0 0 0 0
1 2 5 8 10 12 15 16 17 17 17 18 17 14 13 11 9 7 6 6 5 4 3 3 1 1 2 1 0 0 0 0 0 0 0 0 0 0 0 0 0 0 0
1 1 2 4 7 9 12 15 17 17 16 16 16 15 13 11 8 6 4 4 4 3 3 3 3 2 2 1 0 0 0 0 0 0 0 0 0 0 0 0 0 0 0
1 1 1 2 4 6 9 12 14 13 11 12 13 12 11 9 7 5 4 3 3 3 3 3 3 3 2 1 0 0 0 0 0 0 0 0 0 0 0 0 0 0 0
1 0 0 1 3 4 6 8 9 8 6 7 8 8 8 7 7 6 4 3 3 3 3 3 3 2 1 0 0 0 0 0 0 0 0 0 0 0 0 0 0 0 0
0 0 0 0 1 2 4 6 7 6 5 5 5 6 6 6 7 6 4 3 3 3 3 3 3 2 1 0 0 0 0 0 0 0 0 0 0 0 0 0 0 0 0
0 0 0 0 1 1 3 5 7 6 5 4 4 5 5 5 6 6 5 4 3 3 3 3 3 2 1 0 0 0 0 0 0 0 0 0 0 0 0 0 0 0 0
1 0 0 1 2 2 2 4 6 6 4 3 3 4 3 4 5 5 4 3 2 2 3 3 3 2 1 0 0 0 0 0 0 0 0 0 0 0 0 0 0 0 0
1 0 0 1 2 2 1 3 5 5 3 3 3 3 3 3 3 2 1 1 1 1 1 2 1 1 0 0 0 0 0 0 0 0 0 0 0 0 0 0 0 0 0
1 0 0 2 2 1 0 1 2 3 2 2 2 2 1 1 1 0 0 0 0 0 0 0 0 0 0 0 0 0 0 0 0 0 0 0 0 0 0 0 0 0 0
0 0 0 2 2 1 0 0 1 1 0 1 1 1 0 0 0 0 0 0 0 0 0 0 0 0 0 0 0 0 0 0 0 0 0 0 0 0 0 0 0 0 0
0 0 0 2 2 1 0 0 0 0 0 0 0 0 0 0 0 0 0 0 0 0 0 0 0 0 0 0 0 0 0 0 0 0 0 0 0 0 0 0 0 0 0
0 0 0 1 1 1 0 0 0 0 0 0 0 0 0 0 0 0 0 0 0 0 0 0 0 0 0 0 0 0 0 0 0 0 0 0 0 0 0 0 0 0 0
0 0 0 0 0 0 0 0 0 0 0 0 0 0 0 0 0 0 0 0 0 0 0 0 0 0 0 0 0 0 0 0 0 0 0 0 0 0 0 0 0 0 0
0 0 0 0 0 0 0 0 0 0 0 0 0 0 0 0 0 0 0 0 0 0 0 0 0 0 0 0 0 0 0 0 0 0 0 0 0 0 0 0 0 0 0
0 0 0 0 0 0 0 0 0 0 0 0 0 0 0 0 0 0 0 0 0 0 0 0 0 0 0 0 0 0 0 0 0 0 0 0 0 0 0 0 0 0 0
0 0 0 0 0 0 0 0 0 0 0 0 0 0 0 0 0 0 0 0 0 0 0 0 0 0 0 0 0 0 0 0 0 0 0 0 0 0 0 0 0 0 0
0 0 0 0 0 0 0 0 0 0 0 0 0 0 0 0 0 0 0 0 0 0 0 0 0 0 0 0 0 0 0 0 0 0 0 0 0 0 0 0 0 0 0
0 0 0 0 0 0 0 0 0 0 0 0 0 0 0 0 0 0 0 0 0 0 0 0 0 0 0 0 0 0 0 0 0 0 0 0 0 0 0 0 0 0 0
0 0 0 0 0 0 0 0 0 0 0 0 0 0 0 0 0 0 0 0 0 0 0 0 0 0 0 0 0 0 0 0 0 0 0 0 0 0 0 0 0 0 0
Wind_Speed
3 4 9 9 10 10 10 10 11 11 11 11 12 12 12 12 12 12 12 12 12 12 12 12 12 12 13 13 13 13 13 13 13 13 13 13 13 13 13 13 12 8 14
6 6 10 10 10 10 10 10 10 10 11 11 12 12 12 12 12 12 12 12 12 12 12 12 12 12 12 12 12 12 12 12 12 13 12 11 12 12 12 12 12 8 13
6 7 9 10 10 10 11 10 10 10 10 11 11 11 11 11 11 11 11 11 11 11 11 12 12 12 12 12 11 12 12 11 12 12 10 5 7 11 11 12 12 12 12
6 6 6 11 10 10 10 10 10 10 10 10 11 11 11 11 11 11 11 11 10 11 11 11 11 11 11 11 11 11 11 11 11 10 5 4 4 10 11 11 11 11 11
5 4 6 10 9 10 10 10 10 10 10 10 11 10 11 11 11 11 11 10 10 10 10 10 10 10 10 11 11 11 11 10 11 8 4 4 4 8 9 10 10 10 10
4 3 5 9 9 9 9 9 10 10 10 10 11 10 10 10 10 10 10 10 10 10 10 10 10 10 9 10 10 10 10 10 8 4 4 3 3 7 8 8 9 9 8
3 3 4 8 8 8 8 8 9 9 10 10 10 10 11 10 10 10 10 10 10 10 10 9 9 9 9 9 9 9 10 9 5 4 3 3 3 7 7 8 8 8 8
4 3 3 6 7 7 7 7 7 8 9 9 10 10 10 10 10 10 10 10 9 9 9 9 9 9 9 9 9 9 9 7 5 3 2 2 4 6 6 6 7 7 7
3 3 2 3 4 6 6 6 6 7 8 9 9 9 9 9 10 10 10 10 9 9 9 9 9 8 9 9 9 8 8 7 4 2 1 1 4 5 6 6 5 5 6
2 2 2 2 3 3 4 5 5 5 6 7 8 8 8 8 9 9 8 8 9 8 8 8 8 8 8 8 8 7 7 6 3 2 1 1 3 4 5 5 4 4 4
1 1 1 2 3 3 3 4 4 4 5 5 6 7 7 4 4 5 6 7 8 8 8 7 7 8 7 7 7 6 5 2 2 1 1 1 3 3 4 4 3 3 3
2 1 1 1 1 3 2 2 2 2 2 3 3 4 3 3 3 4 5 6 7 7 7 7 7 7 5 3 4 5 2 2 1 1 1 1 2 3 3 3 3 3 2
2 1 1 1 1 2 2 2 1 1 2 2 3 3 3 3 3 3 2 3 3 4 3 3 3 3 3 2 2 2 2 1 1 1 1 1 1 1 2 2 2 2 2
2 2 1 1 1 2 2 2 2 2 2 2 2 3 3 3 3 2 2 2 2 2 2 2 2 3 3 2 2 2 1 1 0 0 1 1 1 1 1 2 2 2 2
2 2 2 1 2 1 2 2 2 2 3 3 3 3 4 3 4 3 2 2 2 2 2 3 3 3 3 2 1 2 1 1 0 0 1 2 1 1 1 2 1 1 1
3 3 2 2 2 1 1 2 2 2 2 3 2 3 4 3 4 4 3 3 2 2 3 3 3 3 2 2 2 1 1 1 1 1 1 1 2 1 2 1 1 1 1
3 2 2 2 2 2 1 2 2 2 2 2 2 3 3 4 4 4 3 3 3 3 3 3 2 2 2 2 1 1 1 1 1 1 1 1 1 2 2 2 2 1 1
1 1 1 1 1 2 1 1 1 2 2 2 2 3 3 4 4 4 3 3 3 3 3 3 3 2 2 2 1 1 1 1 2 2 1 1 1 1 2 2 2 2 2
1 1 1 1 1 1 1 1 1 1 2 2 2 2 3 4 4 4 4 3 3 3 3 3 2 2 2 2 1 1 1 1 2 2 2 2 1 1 1 2 2 2 2
0 0 1 1 1 1 1 0 0 0 1 1 2 2 3 3 4 4 4 4 4 3 3 3 3 2 2 2 1 0 1 1 1 2 2 2 1 1 1 1 1 2 2
2 1 0 1 1 1 1 1 1 2 2 1 2 3 3 3 4 4 4 4 4 4 4 4 3 3 2 2 1 1 2 1 2 2 2 2 2 2 1 1 1 1 1
1 1 1 1 1 2 2 2 2 2 2 2 2 2 3 3 4 4 5 4 5 4 4 5 3 2 2 2 2 1 1 2 2 2 2 2 3 2 2 2 2 2 1
2 2 2 2 2 2 2 1 0 0 0 0 1 2 3 3 4 4 4 4 5 5 5 6 5 5 4 3 2 3 3 4 2 2 3 3 2 2 2 2 3 3 3
3 2 2 2 2 1 1 2 2 2 2 3 2 2 3 3 3 4 4 4 5 4 5 6 5 4 4 4 2 2 2 2 2 2 2 2 3 3 3 3 3 3 3
2 2 2 2 2 2 1 2 3 2 3 2 2 2 2 2 3 3 4 4 4 4 4 5 5 5 4 4 4 3 2 1 2 2 3 2 2 3 3 4 3 3 3
2 2 2 2 2 2 1 1 2 3 3 2 2 2 2 2 2 3 4 4 4 4 5 5 5 6 5 5 4 4 4 3 4 3 4 3 3 3 3 3 4 4 3
Wind_Direction
182 178 169 153 147 143 139 135 132 133 131 130 128 127 126 123 119 115 112 111 108 103 102 102 100 100 98 94 91 88 84 82 82 82 80 81 80 81 81 78 74 72 78
164 172 165 152 149 147 143 138 133 132 134 133 131 131 130 128 124 120 117 113 111 108 105 101 99 99 99 96 92 90 88 84 82 79 76 76 79 81 81 80 78 77 79
151 162 164 151 149 148 143 138 135 135 133 134 134 134 132 131 129 125 122 117 115 111 107 104 102 100 97 96 93 91 89 87 84 79 71 58 73 81 81 79 78 76 76
150 155 159 153 151 148 145 142 140 140 137 134 135 136 134 133 131 130 127 123 120 116 112 109 106 102 99 96 93 92 90 89 86 77 58 48 61 80 80 79 78 77 75
141 147 159 152 152 149 147 146 146 144 141 140 139 138 138 137 134 131 130 128 125 121 118 114 111 108 103 101 97 94 93 90 86 72 55 50 58 80 79 78 78 76 74
133 141 158 152 154 151 147 150 151 149 148 146 143 142 139 138 137 134 132 130 127 126 124 120 116 113 109 105 101 98 94 92 81 65 57 53 63 83 84 83 80 76 75
132 143 155 153 155 152 150 150 155 154 154 151 147 145 144 140 138 135 135 132 130 131 129 125 122 121 118 111 105 102 100 96 82 69 58 54 77 91 90 87 83 79 75
128 138 146 153 150 149 149 149 153 159 159 155 152 149 144 143 140 141 140 138 135 137 134 130 127 123 120 114 109 105 102 96 83 75 62 55 100 98 93 85 81 79 74
109 126 139 155 158 150 145 145 147 159 161 159 157 153 147 143 145 146 146 145 143 142 139 135 129 123 121 116 110 107 104 93 79 65 59 55 109 106 99 94 87 81 77
101 114 142 148 153 150 154 145 143 151 159 161 157 152 148 146 146 148 149 150 148 145 142 140 134 125 119 114 109 107 99 86 73 58 39 90 115 118 110 101 96 89 81
119 106 118 157 160 154 151 150 147 152 153 159 159 150 142 139 140 142 144 148 149 147 145 142 137 124 112 109 108 105 92 75 74 52 26 82 118 130 123 115 111 102 87
189 198 126 124 175 157 157 149 150 152 148 146 146 150 141 130 134 132 141 148 151 148 146 143 137 118 98 87 97 94 78 76 65 40 11 62 107 135 137 132 124 114 92
192 199 190 157 190 174 161 153 143 136 137 143 143 142 134 129 128 122 129 144 150 143 134 130 120 104 102 100 91 87 89 82 52 354 334 356 89 107 140 154 151 136 113
198 210 220 198 177 190 174 162 155 151 154 157 158 151 145 145 147 147 143 139 135 137 137 131 127 120 116 113 113 110 99 90 52 327 305 332 356 112 116 142 147 149 148
236 233 220 212 179 170 168 170 162 176 176 172 168 169 163 161 166 162 159 152 149 145 148 147 141 139 134 129 126 132 138 150 165 301 316 323 307 259 184 130 135 131 145
233 226 210 192 167 149 170 173 166 180 189 175 176 176 174 173 169 169 168 167 167 164 160 160 160 155 154 153 158 166 173 188 211 246 290 321 327 293 229 199 187 187 172
237 218 198 193 170 164 178 182 166 174 181 186 187 184 182 182 174 174 175 178 179 165 156 149 151 145 150 157 172 184 182 194 202 221 246 288 308 313 292 243 237 244 242
254 222 215 196 181 197 200 207 185 176 178 186 195 189 189 183 175 174 179 189 179 163 164 165 165 162 171 178 191 208 201 204 211 213 221 238 266 294 299 285 274 273 277
249 222 208 181 190 217 223 218 204 185 183 190 189 196 195 188 177 175 185 189 175 169 171 179 171 169 179 190 199 217 225 221 220 215 221 226 225 238 261 291 305 305 299
332 201 190 172 179 194 204 195 200 204 215 197 195 203 194 191 184 179 183 182 176 175 179 179 178 176 180 178 172 274 277 252 234 221 223 223 219 219 219 242 294 300 300
22 18 319 194 221 159 166 195 216 225 227 225 217 203 197 196 190 183 188 183 183 189 192 183 178 180 180 144 109 349 317 273 241 233 221 210 218 220 203 206 211 230 274
348 338 340 267 239 210 206 199 203 217 220 216 223 221 207 199 200 197 191 190 192 190 189 188 174 171 174 164 146 133 287 301 268 238 222 216 221 215 222 235 227 226 227
334 310 304 279 257 240 213 180 113 70 26 265 232 227 229 213 204 203 201 196 195 193 197 194 187 180 187 194 179 164 175 224 271 265 230 224 219 217 229 235 232 233 233
302 299 294 286 282 268 215 179 182 205 218 234 237 235 240 224 216 206 201 199 198 198 198 199 195 189 179 193 204 207 194 175 186 262 276 244 229 230 233 242 240 238 234
307 309 308 323 314 294 243 211 202 224 235 244 244 241 245 238 224 212 209 203 201 204 204 203 200 196 194 196 191 183 190 203 194 199 258 273 267 242 232 233 237 234 232
315 321 336 346 320 310 280 234 219 226 237 242 249 237 243 248 243 227 217 209 207 208 206 207 205 204 206 202 202 195 185 185 193 195 225 245 259 259 247 239 230 225 223